Zurück zum Katalog

FENGYUN 1C DEB

AktivPO
NORAD 37400·DEBRIS·🇨🇳 China

Gestartet May 10, 1999 von Taiyuan Satellite Launch Center

Loading…

Nächste Überflüge (nächste 24 Stunden)

TLE

AlterndSource: Space-Track

Epoche: Sep 9, 2026, 18:51 UTC

1 37400U 99025EFS 26252.78610960  .00000386  00000-0  30755-3 0  9993
2 37400  98.8408  71.2933 0401135 146.3500 216.3823 13.63945216838881

Verfolge FENGYUN 1C DEB in Echtzeit mit AllMySat

Download on the App Store